KC7NGC-B Weather Reports


time (UTC)temp
C
wind
direction
speed
KPH
gust
KPH
rain 1hr
cm
rain 24hr
cm
rain mn
cm
humidity
%
barometer
mb
20260905154624 15 335 11.3 14.5 0.00 0.00 0.00 1 1019.2
20260905153620 15 326 9.7 11.3 0.00 0.00 0.00 1 1019.2
20260905152617 15 343 8.0 9.7 0.00 0.00 0.00 1 1019.4
20260905151653 15 319 6.4 8.0 0.00 0.00 0.00 1 1019.5
20260905150649 14 263 3.2 3.2 0.00 0.00 0.00 1 1019.5
20260905145625 14 347 6.4 8.0 0.00 0.00 0.00 1 1019.5
20260905144621 13 317 3.2 6.4 0.00 0.00 0.00 1 1019.4
20260905143618 13 348 3.2 4.8 0.00 0.00 0.00 1 1019.4
20260905142634 13 261 3.2 6.4 0.00 0.00 0.00 1 1019.5
20260905141630 13 328 3.2 4.8 0.00 0.00 0.00 1 1019.2
20260905140626 12 340 1.6 4.8 0.00 0.00 0.00 1 1019.2
20260905135622 12 0.0 3.2 0.00 0.00 0.00 1 1019.1
20260905134618 12 345 1.6 4.8 0.00 0.00 0.00 1 1019.0
20260905133735 13 93 0.0 3.2 0.00 0.00 0.00 1 1018.9
20260905132651 13 73 3.2 4.8 0.00 0.00 0.00 1 1018.8
20260905131627 13 0.0 3.2 0.00 0.00 0.00 1 1018.7
20260905130643 13 0.0 3.2 0.00 0.00 0.00 1 1018.6
20260905125619 13 205 4.8 8.0 0.00 0.00 0.00 1 1018.6
20260905124618 12 222 3.2 3.2 0.00 0.00 0.00 1 1018.4
20260905123633 12 266 3.2 4.8 0.00 0.00 0.00 1 1018.1
20260905122628 13 16 3.2 3.2 0.00 0.00 0.00 1 1018.4
20260905121624 12 199 1.6 3.2 0.00 0.00 0.00 1 1018.3
20260905120620 13 316 4.8 6.4 0.00 0.00 0.00 1 1018.1
20260905115616 12 336 4.8 6.4 0.00 0.00 0.00 1 1018.0
20260905114652 13 316 4.8 6.4 0.00 0.00 0.00 1 1017.8
20260905113648 13 338 8.0 9.7 0.00 0.00 0.00 1 1017.8
20260905112624 13 345 4.8 8.0 0.00 0.00 0.00 1 1018.0
20260905111621 13 334 6.4 9.7 0.00 0.00 0.00 1 1017.8
20260905110617 14 338 6.4 9.7 0.00 0.00 0.00 1 1017.7
20260905105633 14 327 9.7 11.3 0.00 0.00 0.00 1 1017.8
20260905104629 14 333 6.4 9.7 0.00 0.00 0.00 1 1017.8
20260905103625 13 342 0.0 1.6 0.00 0.00 0.00 1 1017.9
20260905102621 13 216 3.2 3.2 0.00 0.00 0.00 1 1018.0
20260905101617 13 303 4.8 6.4 0.00 0.00 0.00 1 1017.8
20260905100633 13 325 4.8 6.4 0.00 0.00 0.00 1 1017.7
20260905095630 13 327 6.4 8.0 0.00 0.00 0.00 1 1017.9
20260905094626 13 338 6.4 8.0 0.00 0.00 0.00 1 1017.8
20260905093622 13 330 4.8 6.4 0.00 0.00 0.00 1 1017.8
20260905092618 13 328 6.4 8.0 0.00 0.00 0.00 1 1017.8
20260905091654 13 342 8.0 11.3 0.00 0.00 0.00 1 1017.8
20260905090631 13 346 4.8 6.4 0.00 0.00 0.00 1 1017.6
20260905085626 13 333 4.8 6.4 0.00 0.00 0.00 1 1017.7
20260905084622 13 0 1.6 3.2 0.00 0.00 0.00 1 1017.4
20260905083639 13 0.0 0.0 0.00 0.00 0.00 1 1017.6
20260905082715 13 301 3.2 4.8 0.00 0.00 0.00 1 1017.4
20260905081651 13 331 4.8 8.0 0.00 0.00 0.00 1 1017.2
20260905080647 14 346 4.8 6.4 0.00 0.00 0.00 1 1017.2
20260905075623 13 332 8.0 11.3 0.00 0.00 0.00 1 1017.2
20260905074619 13 309 4.8 6.4 0.00 0.00 0.00 1 1017.2
20260905073655 13 344 3.2 4.8 0.00 0.00 0.00 1 1016.9
20260905072631 13 345 6.4 9.7 0.00 0.00 0.00 1 1017.0
20260905071628 13 341 4.8 6.4 0.00 0.00 0.00 1 1016.9
20260905070624 13 327 8.0 9.7 0.00 0.00 0.00 1 1017.1
20260905065620 13 343 8.0 9.7 0.00 0.00 0.00 1 1017.0
20260905064718 13 326 6.4 8.0 0.00 0.00 0.00 1 1016.8
20260905063633 13 343 8.0 9.7 0.00 0.00 0.00 1 1016.4
20260905062629 13 329 9.7 11.3 0.00 0.00 0.00 1 1016.6
20260905061625 13 332 11.3 14.5 0.00 0.00 0.00 1 1016.4
20260905060621 13 328 6.4 11.3 0.00 0.00 0.00 1 1016.7
20260905055617 13 310 4.8 6.4 0.00 0.00 0.00 1 1016.4
20260905054634 13 322 6.4 8.0 0.00 0.00 0.00 1 1016.3
20260905053630 14 336 6.4 9.7 0.00 0.00 0.00 1 1016.5
20260905052646 15 331 6.4 9.7 0.00 0.00 0.00 1 1016.3
20260905051642 15 338 8.0 8.0 0.00 0.00 0.00 1 1016.4
20260905050618 15 329 6.4 8.0 0.00 0.00 0.00 1 1016.5
20260905045634 15 308 6.4 8.0 0.00 0.00 0.00 1 1016.5
20260905044631 15 338 14.5 16.1 0.00 0.00 0.00 1 1016.3
20260905043626 15 336 9.7 12.9 0.00 0.00 0.00 1 1016.1
20260905042622 16 339 8.0 9.7 0.00 0.00 0.00 1 1016.1
20260905041618 16 352 8.0 9.7 0.00 0.00 0.00 1 1016.2
20260905040635 16 356 6.4 6.4 0.00 0.00 0.00 1 1016.3
20260905035631 16 329 9.7 11.3 0.00 0.00 0.00 1 1016.2
20260905034627 17 339 9.7 14.5 0.00 0.00 0.00 1 1016.2
20260905033623 18 336 4.8 6.4 0.00 0.00 0.00 1 1016.0
20260905032619 18 315 3.2 4.8 0.00 0.00 0.00 1 1016.0
20260905031636 19 296 4.8 6.4 0.00 0.00 0.00 1 1015.9
20260905030631 18 294 4.8 4.8 0.00 0.00 0.00 1 1015.9
20260905025628 19 328 3.2 3.2 0.00 0.00 0.00 1 1015.6
20260905024644 18 324 3.2 4.8 0.00 0.00 0.00 1 1015.8
20260905023620 18 291 1.6 3.2 0.00 0.00 0.00 1 1015.4
20260905022636 19 292 1.6 3.2 0.00 0.00 0.00 1 1015.6
20260905021632 20 350 3.2 3.2 0.00 0.00 0.00 1 1015.7
20260905020628 20 0 1.6 3.2 0.00 0.00 0.00 1 1015.6
20260905015624 20 34 3.2 4.8 0.00 0.00 0.00 1 1015.6
20260905014621 21 39 3.2 6.4 0.00 0.00 0.00 1 1015.5
20260905013617 21 66 4.8 6.4 0.00 0.00 0.00 1 1015.4
20260905012633 21 57 1.6 3.2 0.00 0.00 0.00 1 1015.3
20260905011629 21 23 3.2 4.8 0.00 0.00 0.00 1 1015.3
20260905010625 21 51 6.4 8.0 0.00 0.00 0.00 1 1015.2
20260905005621 21 48 6.4 8.0 0.00 0.00 0.00 1 1015.2
20260905004617 21 50 8.0 9.7 0.00 0.00 0.00 1 1015.2
20260905003634 22 26 6.4 8.0 0.00 0.00 0.00 1 1015.2
20260905002630 21 49 0.0 3.2 0.00 0.00 0.00 1 1015.1
20260905001626 21 42 4.8 8.0 0.00 0.00 0.00 1 1015.0
20260905000622 21 64 3.2 6.4 0.00 0.00 0.00 1 1015.1
20260904235618 22 86 1.6 4.8 0.00 0.00 0.00 1 1015.1
20260904234634 22 125 3.2 9.7 0.00 0.00 0.00 1 1015.1
20260904233631 22 90 6.4 8.0 0.00 0.00 0.00 1 1015.0
20260904232631 22 88 3.2 9.7 0.00 0.00 0.00 1 1015.1
20260904231643 22 87 8.0 9.7 0.00 0.00 0.00 1 1015.2
20260904230620 22 50 6.4 14.5 0.00 0.00 0.00 1 1015.2
20260904225635 22 54 11.3 14.5 0.00 0.00 0.00 1 1015.2
20260904224631 22 34 4.8 6.4 0.00 0.00 0.00 1 1015.2
20260904223628 22 100 3.2 8.0 0.00 0.00 0.00 1 1015.2
20260904222623 21 40 8.0 12.9 0.00 0.00 0.00 1 1015.3
20260904221620 21 78 4.8 8.0 0.00 0.00 0.00 1 1015.3
20260904220656 21 58 6.4 8.0 0.00 0.00 0.00 1 1015.3
20260904215633 21 63 6.4 14.5 0.00 0.00 0.00 1 1015.3
20260904214628 21 16 8.0 11.3 0.00 0.00 0.00 1 1015.5
20260904213624 21 34 8.0 11.3 0.00 0.00 0.00 1 1015.4
20260904212641 21 50 6.4 9.7 0.00 0.00 0.00 1 1015.4
20260904211620 21 82 4.8 8.0 0.00 0.00 0.00 1 1015.4
20260904210632 21 53 11.3 17.7 0.00 0.00 0.00 1 1015.2
20260904205636 21 49 8.0 12.9 0.00 0.00 0.00 1 1015.3
20260904204625 20 326 6.4 9.7 0.00 0.00 0.00 1 1015.4
20260904203620 21 20 9.7 14.5 0.00 0.00 0.00 1 1015.4
20260904202616 20 44 4.8 8.0 0.00 0.00 0.00 1 1015.3
20260904201633 20 8 9.7 11.3 0.00 0.00 0.00 1 1015.4
20260904200629 20 59 8.0 9.7 0.00 0.00 0.00 1 1015.5
20260904195645 20 95 6.4 8.0 0.00 0.00 0.00 1 1015.5
20260904194622 20 179 4.8 4.8 0.00 0.00 0.00 1 1015.6
20260904193638 19 360 3.2 8.0 0.00 0.00 0.00 1 1015.6
20260904192634 20 67 6.4 9.7 0.00 0.00 0.00 1 1015.7
20260904191630 19 38 6.4 8.0 0.00 0.00 0.00 1 1015.8
20260904190726 18 50 6.4 9.7 0.00 0.00 0.00 1 1015.8
20260904185622 18 24 4.8 8.0 0.00 0.00 0.00 1 1016.1
20260904184619 17 156 3.2 4.8 0.00 0.00 0.00 1 1016.1
20260904183635 17 185 6.4 8.0 0.00 0.00 0.00 1 1016.3
20260904182631 18 158 6.4 11.3 0.00 0.00 0.00 1 1016.1
20260904181647 18 190 6.4 6.4 0.00 0.00 0.00 1 1016.0
20260904180624 17 37 1.6 4.8 0.00 0.00 0.00 1 1015.8
20260904175620 16 314 3.2 4.8 0.00 0.00 0.00 1 1015.9
20260904174621 17 58 3.2 6.4 0.00 0.00 0.00 1 1015.8
20260904173633 16 68 3.2 4.8 0.00 0.00 0.00 1 1015.8
20260904172628 17 53 8.0 9.7 0.00 0.00 0.00 1 1015.6
20260904171625 16 331 1.6 4.8 0.00 0.00 0.00 1 1015.6
20260904170621 16 12 1.6 4.8 0.00 0.00 0.00 1 1015.7
20260904165618 15 348 4.8 6.4 0.00 0.00 0.00 1 1015.7
20260904164634 15 1 3.2 4.8 0.00 0.00 0.00 1 1015.6
20260904163629 15 336 4.8 6.4 0.00 0.00 0.00 1 1015.6
20260904162645 14 43 3.2 3.2 0.00 0.00 0.00 1 1015.6
20260904161622 14 9 3.2 6.4 0.00 0.00 0.00 1 1015.6
20260904160618 14 337 3.2 6.4 0.00 0.00 0.00 1 1015.4
20260904155636 13 1 4.8 6.4 0.00 0.00 0.00 1 1015.4